Tracking 27423 objects as of 8-Jun-2023
HD Live streaming from Space Station
objects crossing your sky now

CZ-2C DEB

Track CZ-2C DEB now!
10-day predictions


NORAD ID: 37768
Int'l Code: 2011-039D
Perigee: 686.0 km
Apogee: 891.7 km
Inclination: 98.2 °
Period: 100.5 minutes
Semi major axis: 7159 km
RCS: 0.0872 m2 (small)
Launch date: July 29, 2011
Source: People's Republic of China (PRC)
Launch site: Jiuquan Satellite Launch Center, China (JSC)

Note: This is SATELLITE DEBRIS
Your satellite tracking list
Your tracking list is empty




NASA's NSSDC Master Catalog

Two Line Element Set (TLE):
1 37768U 11039D   23159.47516317  .00003158  00000-0  10430-2 0  9996
2 37768  98.2445 127.8794 0143634 318.4877 160.8410 14.33009620618386
Source of the keplerian elements: AFSPC